STARLINK-36456, 67357

Orbit data source: Space-Track

STARLINK-36456, 67357 is a payload satellite owned by SpaceX/Seattle (US) in LEO that was launched on Fri, 09 Jan 2026 UTC via an FALCON 9 launch vehicle from the Air Force Eastern Test Range (AFETR). Payload-class satellites include a variety of spacecraft equipped with specific instruments for various scientific and technological missions. These include communications satellites like Starlink; space stations such as the ISS; scientific satellites like the Hubble; Earth observation satellites from companies like Planet Labs, Umbra, and HawkEye 360; GPS; miniature CubeSats for education and research; and military/defense satellites.

Loading next visibility...
Identifier
67357, 2026-003Z
Orbit
LEO
Country
Flag of USUS
Related business
Manufacturer
SpaceX/Seattle
Mission
Operational Commercial Communications
Bus & Motor
STARLINK V2MO, Unknown motor
Mass
575 kg wet, ~530 kg dry
Launch date (UTC)
2026-01-09 (5 months ago)
Launch vehicle
FALCON 9
Launch site
Air Force Eastern Test Range (AFETR)
Object type
Payload
Rocket body
Debris
Shape & HBR
Box + 2 Pan, 17.7 m
Radar Cross Section
36.964 m², Large (>1 m²)

Expand to show TLE details & history
Last TLE update: 1 day ago

TLE from 1 day ago
0 STARLINK-36456
1 67357U 26003Z   26170.62644410  .00021275  00000-0  78019-3 0  9997
2 67357  43.0016  11.3916 0001370 247.7004 112.3702 15.27589409 24417
Epoch: 2026-06-19T15:02Z
TLE epoch observation values (Epoch: 2026-06-19T15:02:04.770Z)
Latitude
-0.00004°
Longitude
-121.98104°
Altitude
483.154 km
Speed
7.625 km/s
True Right ascension
00h 45m 33s
True Declination
0° 00' 00"
Sunlit
Object was in daylight at epoch
Visualization orbit readout
Latitude
Unknown
Longitude
Unknown
Altitude
Unknown
Speed
Unknown
Apparent Right ascension
Unknown
Apparent Declination
Unknown
Sunlit
N/A
Visualization observer readout
Local Sidereal Time
07:14:55
Azimuth
Unknown
Elevation
Unknown
Doppler factor
Unknown
Orbital elements
Apogee altitude
485.906 km
Perigee altitude
484.026 km
Semi-major axis
6,863.103 km
Eccentricity
0.00014
Inclination
43.0016°
RAAN
11.3916°
Arg. of periapsis
247.7004°
True anomaly
112.38472°
Mean anomaly
112.3702°
Eccentric anomaly
112.37746°
Mean motion
3.81735 °/min
Orbital period
94.31 mins
BSTAR
0.00078019
Loading maneuver chart data...
Computing Atmospheric mass density...
Loading historical data...
Loading historical data...
Loading historical data...
Loading historical data...
Loading historical data...
Loading historical data...
Loading historical data...

Documentation

Showing up to 5 results
|